Time,TemperatureF,DewpointF,PressureIn,WindDirection,WindDirectionDegrees,WindSpeedMPH,WindSpeedGustMPH,Humidity,HourlyPrecipIn,Conditions,Clouds,dailyrainin,SolarRadiationWatts/m^2,SoftwareType,DateUTC
2013-09-14 00:00:00,54.8,47.0,29.88,WSW,245,0.0,6.0,75,0.00,,,0.09,0.00,VWS V14.01,2013-09-14 04:00:00,
2013-09-14 00:01:00,54.8,47.0,29.88,WSW,245,0.0,0.0,75,0.00,,,0.00,0.00,VWS V14.01,2013-09-14 04:01:00,
2013-09-14 00:02:00,54.8,47.0,29.88,WSW,245,0.0,0.0,75,0.00,,,0.00,0.00,VWS V14.01,2013-09-14 04:02:00,
2013-09-14 00:07:00,54.8,47.0,29.88,SW,236,0.0,5.0,75,0.00,,,0.00,0.00,VWS V14.01,2013-09-14 04:07:00,
2013-09-14 00:12:00,54.7,46.9,29.88,West,274,0.0,8.0,75,0.00,,,0.00,0.00,VWS V14.01,2013-09-14 04:12:00,
2013-09-14 00:15:00,54.7,46.9,29.88,WSW,249,0.0,8.0,75,0.00,,,0.00,0.00,VWS V14.01,2013-09-14 04:15:00,
2013-09-14 00:17:00,54.7,46.9,29.88,WSW,249,0.0,4.0,75,0.00,,,0.00,0.00,VWS V14.01,2013-09-14 04:17:00,
2013-09-14 00:22:00,54.5,47.1,29.88,WSW,245,0.0,4.0,76,0.00,,,0.00,0.00,VWS V14.01,2013-09-14 04:22:00,
2013-09-14 00:27:00,54.4,47.0,29.88,WSW,245,0.0,4.0,76,0.00,,,0.00,0.00,VWS V14.01,2013-09-14 04:27:00,
2013-09-14 00:30:00,54.2,46.8,29.88,WSW,245,0.0,4.0,76,0.00,,,0.00,0.00,VWS V14.01,2013-09-14 04:30:00,
2013-09-14 00:32:00,54.2,46.8,29.88,WSW,245,0.0,0.0,76,0.00,,,0.00,0.00,VWS V14.01,2013-09-14 04:32:00,
2013-09-14 00:37:00,54.2,47.2,29.88,WSW,245,0.0,0.0,77,0.00,,,0.00,0.00,VWS V14.01,2013-09-14 04:37:00,
2013-09-14 00:42:00,54.1,47.1,29.88,WSW,245,0.0,0.0,77,0.00,,,0.00,0.00,VWS V14.01,2013-09-14 04:42:00,
2013-09-14 00:45:00,54.1,47.1,29.89,WSW,245,0.0,0.0,77,0.00,,,0.00,0.00,VWS V14.01,2013-09-14 04:45:00,
2013-09-14 00:47:00,54.1,47.1,29.89,WSW,245,0.0,0.0,77,0.00,,,0.00,0.00,VWS V14.01,2013-09-14 04:47:00,
2013-09-14 00:52:00,53.9,47.2,29.89,WSW,245,0.0,0.0,78,0.00,,,0.00,0.00,VWS V14.01,2013-09-14 04:52:00,
2013-09-14 00:57:00,53.9,47.2,29.89,WSW,245,0.0,0.0,78,0.00,,,0.00,0.00,VWS V14.01,2013-09-14 04:57:00,
2013-09-14 01:00:00,53.9,47.5,29.90,WSW,245,0.0,0.0,79,0.00,,,0.00,0.00,VWS V14.01,2013-09-14 05:00:00,
2013-09-14 01:02:00,53.9,47.5,29.90,WSW,245,0.0,0.0,79,0.00,,,0.00,0.00,VWS V14.01,2013-09-14 05:02:00,
2013-09-14 01:07:00,53.9,47.9,29.90,WSW,246,0.0,0.0,80,0.00,,,0.00,0.00,VWS V14.01,2013-09-14 05:07:00,
2013-09-14 01:12:00,53.9,48.2,29.90,WSW,245,0.0,0.0,81,0.00,,,0.00,0.00,VWS V14.01,2013-09-14 05:12:00,
2013-09-14 01:15:00,53.9,47.9,29.90,WSW,245,0.0,0.0,80,0.00,,,0.00,0.00,VWS V14.01,2013-09-14 05:15:00,
2013-09-14 01:17:00,53.9,47.9,29.90,WSW,246,0.0,0.0,80,0.00,,,0.00,0.00,VWS V14.01,2013-09-14 05:17:00,
2013-09-14 01:22:00,53.9,47.9,29.90,WSW,245,0.0,0.0,80,0.00,,,0.00,0.00,VWS V14.01,2013-09-14 05:22:00,
2013-09-14 01:27:00,53.9,47.9,29.90,WSW,245,0.0,0.0,80,0.00,,,0.00,0.00,VWS V14.01,2013-09-14 05:27:00,
2013-09-14 01:30:00,53.8,47.8,29.90,WSW,245,0.0,0.0,80,0.00,,,0.00,0.00,VWS V14.01,2013-09-14 05:30:00,
2013-09-14 01:32:00,53.8,47.8,29.90,WSW,245,0.0,0.0,80,0.00,,,0.00,0.00,VWS V14.01,2013-09-14 05:32:00,
2013-09-14 01:36:00,53.8,47.8,29.90,WSW,245,0.0,0.0,80,0.00,,,0.00,0.00,VWS V14.01,2013-09-14 05:36:00,
2013-09-14 01:41:00,53.6,47.6,29.90,WSW,245,0.0,0.0,80,0.00,,,0.00,0.00,VWS V14.01,2013-09-14 05:41:00,
2013-09-14 01:45:00,53.6,47.6,29.91,WSW,245,0.0,0.0,80,0.00,,,0.00,0.00,VWS V14.01,2013-09-14 05:45:00,
2013-09-14 01:46:00,53.6,47.6,29.91,WSW,245,0.0,0.0,80,0.00,,,0.00,0.00,VWS V14.01,2013-09-14 05:46:00,
2013-09-14 01:51:00,53.5,47.8,29.91,WSW,245,0.0,0.0,81,0.00,,,0.00,0.00,VWS V14.01,2013-09-14 05:51:00,
2013-09-14 01:56:00,53.3,47.6,29.91,WSW,245,0.0,0.0,81,0.00,,,0.00,0.00,VWS V14.01,2013-09-14 05:56:00,
2013-09-14 02:00:00,53.2,47.5,29.91,WSW,245,0.0,1.0,81,0.00,,,0.00,0.00,VWS V14.01,2013-09-14 06:00:00,
2013-09-14 02:01:00,53.2,47.5,29.91,WSW,245,0.0,0.0,81,0.00,,,0.00,0.00,VWS V14.01,2013-09-14 06:01:00,
2013-09-14 02:06:00,53.1,47.1,29.91,WSW,245,0.0,0.0,80,0.00,,,0.00,0.00,VWS V14.01,2013-09-14 06:06:00,
2013-09-14 02:11:00,53.1,47.1,29.91,WSW,245,0.0,0.0,80,0.00,,,0.00,0.00,VWS V14.01,2013-09-14 06:11:00,
2013-09-14 02:15:00,53.2,47.2,29.91,WSW,245,0.0,0.0,80,0.00,,,0.00,0.00,VWS V14.01,2013-09-14 06:15:00,
2013-09-14 02:16:00,53.2,47.2,29.91,WSW,245,0.0,0.0,80,0.00,,,0.00,0.00,VWS V14.01,2013-09-14 06:16:00,
2013-09-14 02:21:00,53.1,46.8,29.91,WSW,245,0.0,1.0,79,0.00,,,0.00,0.00,VWS V14.01,2013-09-14 06:21:00,
2013-09-14 02:26:00,53.1,46.8,29.91,WSW,245,0.0,1.0,79,0.00,,,0.00,0.00,VWS V14.01,2013-09-14 06:26:00,
2013-09-14 02:30:00,52.9,46.6,29.91,WSW,245,0.0,1.0,79,0.00,,,0.00,0.00,VWS V14.01,2013-09-14 06:30:00,
2013-09-14 02:31:00,52.9,46.6,29.91,WSW,246,0.0,0.0,79,0.00,,,0.00,0.00,VWS V14.01,2013-09-14 06:31:00,
2013-09-14 02:36:00,52.9,46.2,29.91,WSW,245,0.0,5.0,78,0.00,,,0.00,0.00,VWS V14.01,2013-09-14 06:36:00,
2013-09-14 02:41:00,52.9,46.2,29.91,SSW,199,4.0,5.0,78,0.00,,,0.00,0.00,VWS V14.01,2013-09-14 06:41:00,
2013-09-14 02:45:00,52.9,45.9,29.91,SSW,194,0.0,5.0,77,0.00,,,0.00,0.00,VWS V14.01,2013-09-14 06:45:00,
2013-09-14 02:46:00,53.1,46.1,29.91,SSW,194,0.0,1.0,77,0.00,,,0.00,0.00,VWS V14.01,2013-09-14 06:46:00,
2013-09-14 02:51:00,53.1,45.8,29.91,West,281,0.0,5.0,76,0.00,,,0.00,0.00,VWS V14.01,2013-09-14 06:51:00,
2013-09-14 02:56:00,53.1,45.8,29.91,WSW,250,0.0,5.0,76,0.00,,,0.00,0.00,VWS V14.01,2013-09-14 06:56:00,
2013-09-14 03:00:00,53.1,45.7,29.91,WSW,250,0.0,5.0,76,0.00,,,0.00,0.00,VWS V14.01,2013-09-14 07:00:00,
2013-09-14 03:01:00,53.1,45.8,29.91,WSW,250,0.0,0.0,76,0.00,,,0.00,0.00,VWS V14.01,2013-09-14 07:01:00,
2013-09-14 03:06:00,53.1,45.8,29.91,WSW,250,0.0,0.0,76,0.00,,,0.00,0.00,VWS V14.01,2013-09-14 07:06:00,
2013-09-14 03:11:00,53.1,45.8,29.91,WSW,250,0.0,0.0,76,0.00,,,0.00,0.00,VWS V14.01,2013-09-14 07:11:00,
2013-09-14 03:15:00,53.2,45.8,29.91,WSW,250,0.0,0.0,76,0.00,,,0.00,0.00,VWS V14.01,2013-09-14 07:15:00,
2013-09-14 03:16:00,53.2,45.8,29.91,WSW,250,0.0,0.0,76,0.00,,,0.00,0.00,VWS V14.01,2013-09-14 07:16:00,
2013-09-14 03:21:00,53.2,45.5,29.91,North,360,12.0,13.0,75,0.00,,,0.00,0.00,VWS V14.01,2013-09-14 07:21:00,
2013-09-14 03:26:00,53.3,45.2,29.91,NE,42,5.0,13.0,74,0.00,,,0.00,0.00,VWS V14.01,2013-09-14 07:26:00,
2013-09-14 03:30:00,53.5,45.4,29.91,East,83,0.0,13.0,74,0.00,,,0.00,0.00,VWS V14.01,2013-09-14 07:30:00,
2013-09-14 03:31:00,53.5,45.4,29.91,East,83,0.0,0.0,74,0.00,,,0.00,0.00,VWS V14.01,2013-09-14 07:31:00,
2013-09-14 03:36:00,53.5,45.1,29.91,NE,53,0.0,8.0,73,0.00,,,0.00,0.00,VWS V14.01,2013-09-14 07:36:00,
2013-09-14 03:41:00,53.6,45.2,29.91,ENE,57,0.0,8.0,73,0.00,,,0.00,0.00,VWS V14.01,2013-09-14 07:41:00,
2013-09-14 03:45:00,53.6,45.2,29.91,ENE,63,0.0,8.0,73,0.00,,,0.00,0.00,VWS V14.01,2013-09-14 07:45:00,
2013-09-14 03:46:00,53.6,45.2,29.91,ENE,63,0.0,0.0,73,0.00,,,0.00,0.00,VWS V14.01,2013-09-14 07:46:00,
2013-09-14 03:51:00,53.6,45.2,29.91,East,93,0.0,5.0,73,0.00,,,0.00,0.00,VWS V14.01,2013-09-14 07:51:00,
2013-09-14 03:56:00,53.6,45.2,29.91,East,93,0.0,5.0,73,0.00,,,0.00,0.00,VWS V14.01,2013-09-14 07:56:00,
2013-09-14 04:00:00,53.6,45.2,29.92,East,93,0.0,5.0,73,0.00,,,0.00,0.00,VWS V14.01,2013-09-14 08:00:00,
2013-09-14 04:01:00,53.6,45.2,29.92,East,93,0.0,0.0,73,0.00,,,0.00,0.00,VWS V14.01,2013-09-14 08:01:00,
2013-09-14 04:06:00,53.6,45.2,29.92,East,93,0.0,1.0,73,0.00,,,0.00,0.00,VWS V14.01,2013-09-14 08:06:00,
2013-09-14 04:11:00,53.6,45.2,29.92,ENE,66,5.0,7.0,73,0.00,,,0.00,0.00,VWS V14.01,2013-09-14 08:11:00,
2013-09-14 04:15:00,53.6,45.5,29.92,South,182,0.0,7.0,74,0.00,,,0.00,0.00,VWS V14.01,2013-09-14 08:15:00,
2013-09-14 04:16:00,53.6,45.5,29.92,SSW,207,0.0,0.0,74,0.00,,,0.00,0.00,VWS V14.01,2013-09-14 08:16:00,
2013-09-14 04:21:00,53.6,45.2,29.92,West,266,0.0,7.0,73,0.00,,,0.00,0.00,VWS V14.01,2013-09-14 08:21:00,
2013-09-14 04:26:00,53.6,45.2,29.92,NW,313,2.0,7.0,73,0.00,,,0.00,0.00,VWS V14.01,2013-09-14 08:26:00,
2013-09-14 04:30:00,53.6,45.2,29.92,NE,45,0.0,7.0,73,0.00,,,0.00,0.00,VWS V14.01,2013-09-14 08:30:00,
2013-09-14 04:31:00,53.6,45.2,29.92,NE,55,0.0,0.0,73,0.00,,,0.00,0.00,VWS V14.01,2013-09-14 08:31:00,
2013-09-14 04:36:00,53.6,45.2,29.92,NNE,27,0.0,6.0,73,0.00,,,0.00,0.00,VWS V14.01,2013-09-14 08:36:00,
2013-09-14 04:41:00,53.5,45.1,29.92,NNE,31,0.0,6.0,73,0.00,,,0.00,0.00,VWS V14.01,2013-09-14 08:41:00,
2013-09-14 04:45:00,53.5,45.4,29.93,North,5,0.0,6.0,74,0.00,,,0.00,0.00,VWS V14.01,2013-09-14 08:45:00,
2013-09-14 04:46:00,53.5,45.4,29.93,North,5,0.0,1.0,74,0.00,,,0.00,0.00,VWS V14.01,2013-09-14 08:46:00,
2013-09-14 04:51:00,53.5,45.8,29.93,SW,228,4.0,10.0,75,0.00,,,0.00,0.00,VWS V14.01,2013-09-14 08:51:00,
2013-09-14 04:56:00,53.3,45.2,29.93,ENE,74,3.0,10.0,74,0.00,,,0.00,0.00,VWS V14.01,2013-09-14 08:56:00,
2013-09-14 05:00:00,53.3,45.2,29.93,WNW,294,0.0,10.0,74,0.00,,,0.00,0.00,VWS V14.01,2013-09-14 09:00:00,
2013-09-14 05:01:00,53.3,45.2,29.93,WNW,293,0.0,0.0,74,0.00,,,0.00,0.00,VWS V14.01,2013-09-14 09:01:00,
2013-09-14 05:06:00,53.2,44.8,29.93,WNW,293,0.0,1.0,73,0.00,,,0.00,0.00,VWS V14.01,2013-09-14 09:06:00,
2013-09-14 05:11:00,53.2,44.4,29.93,ENE,57,1.0,7.0,72,0.00,,,0.00,0.00,VWS V14.01,2013-09-14 09:11:00,
2013-09-14 05:15:00,53.2,44.0,29.93,North,10,0.0,9.0,71,0.00,,,0.00,0.00,VWS V14.01,2013-09-14 09:15:00,
2013-09-14 05:16:00,53.1,44.0,29.93,North,10,0.0,0.0,71,0.00,,,0.00,0.00,VWS V14.01,2013-09-14 09:16:00,
2013-09-14 05:21:00,53.1,44.0,29.93,ENE,57,0.0,8.0,71,0.00,,,0.00,0.00,VWS V14.01,2013-09-14 09:21:00,
2013-09-14 05:26:00,53.1,43.6,29.93,NE,56,0.0,8.0,70,0.00,,,0.00,0.00,VWS V14.01,2013-09-14 09:26:00,
2013-09-14 05:30:00,53.1,44.0,29.94,NE,36,0.0,8.0,71,0.00,,,0.00,0.00,VWS V14.01,2013-09-14 09:30:00,
2013-09-14 05:31:00,53.1,44.0,29.94,NE,43,0.0,0.0,71,0.00,,,0.00,0.00,VWS V14.01,2013-09-14 09:31:00,
2013-09-14 05:36:00,52.9,43.8,29.94,NE,51,0.0,6.0,71,0.00,,,0.00,0.00,VWS V14.01,2013-09-14 09:36:00,
2013-09-14 05:41:00,52.9,43.4,29.94,SW,223,3.0,10.0,70,0.00,,,0.00,0.00,VWS V14.01,2013-09-14 09:41:00,
2013-09-14 05:45:00,52.9,43.4,29.94,East,91,0.0,10.0,70,0.00,,,0.00,0.00,VWS V14.01,2013-09-14 09:45:00,
2013-09-14 05:46:00,52.9,43.4,29.94,East,91,0.0,0.0,70,0.00,,,0.00,0.00,VWS V14.01,2013-09-14 09:46:00,
2013-09-14 05:51:00,52.9,43.4,29.94,NE,40,3.0,6.0,70,0.00,,,0.00,0.00,VWS V14.01,2013-09-14 09:51:00,
2013-09-14 05:56:00,52.9,43.4,29.94,East,94,5.0,10.0,70,0.00,,,0.00,0.00,VWS V14.01,2013-09-14 09:56:00,
2013-09-14 06:00:00,52.9,43.4,29.95,ENE,72,0.0,10.0,70,0.00,,,0.00,0.00,VWS V14.01,2013-09-14 10:00:00,
2013-09-14 06:01:00,52.8,43.3,29.95,ESE,103,0.0,0.0,70,0.00,,,0.00,0.00,VWS V14.01,2013-09-14 10:01:00,
2013-09-14 06:06:00,52.8,43.3,29.95,NE,52,6.0,11.0,70,0.00,,,0.00,0.00,VWS V14.01,2013-09-14 10:06:00,
2013-09-14 06:11:00,52.8,43.3,29.95,NE,53,5.0,11.0,70,0.00,,,0.00,0.00,VWS V14.01,2013-09-14 10:11:00,
2013-09-14 06:15:00,52.6,43.1,29.95,ENE,65,3.0,11.0,70,0.00,,,0.00,0.00,VWS V14.01,2013-09-14 10:15:00,
2013-09-14 06:16:00,52.6,43.1,29.95,North,11,4.0,6.0,70,0.00,,,0.00,0.00,VWS V14.01,2013-09-14 10:16:00,
2013-09-14 06:21:00,52.6,43.1,29.95,ENE,77,0.0,7.0,70,0.00,,,0.00,0.00,VWS V14.01,2013-09-14 10:21:00,
2013-09-14 06:26:00,52.6,42.7,29.95,NE,56,0.0,10.0,69,0.00,,,0.00,0.00,VWS V14.01,2013-09-14 10:26:00,
2013-09-14 06:30:00,52.6,42.7,29.96,ENE,58,3.0,10.0,69,0.00,,,0.00,0.00,VWS V14.01,2013-09-14 10:30:00,
2013-09-14 06:31:00,52.6,42.7,29.96,East,92,0.0,6.0,69,0.00,,,0.00,0.00,VWS V14.01,2013-09-14 10:31:00,
2013-09-14 06:36:00,52.5,42.6,29.96,ENE,59,7.0,8.0,69,0.00,,,0.00,0.00,VWS V14.01,2013-09-14 10:36:00,
2013-09-14 06:41:00,52.5,42.6,29.96,ENE,62,0.0,11.0,69,0.00,,,0.00,0.00,VWS V14.01,2013-09-14 10:41:00,
2013-09-14 06:45:00,52.5,42.6,29.96,ESE,123,0.0,11.0,69,0.00,,,0.00,5.00,VWS V14.01,2013-09-14 10:45:00,
2013-09-14 06:46:00,52.5,42.6,29.96,ENE,76,1.0,1.0,69,0.00,,,0.00,5.00,VWS V14.01,2013-09-14 10:46:00,
2013-09-14 06:51:00,52.3,42.5,29.96,East,82,0.0,1.0,69,0.00,,,0.00,9.00,VWS V14.01,2013-09-14 10:51:00,
2013-09-14 06:56:00,52.3,42.8,29.96,ENE,57,0.0,5.0,70,0.00,,,0.00,12.00,VWS V14.01,2013-09-14 10:56:00,
2013-09-14 07:00:00,52.3,42.8,29.97,NE,53,5.0,7.0,70,0.00,,,0.00,16.00,VWS V14.01,2013-09-14 11:00:00,
2013-09-14 07:01:00,52.3,42.8,29.97,NE,53,0.0,5.0,70,0.00,,,0.00,16.00,VWS V14.01,2013-09-14 11:01:00,
2013-09-14 07:06:00,52.2,42.3,29.97,NW,322,0.0,5.0,69,0.00,,,0.00,19.00,VWS V14.01,2013-09-14 11:06:00,
2013-09-14 07:11:00,52.3,42.8,29.97,ENE,65,0.0,5.0,70,0.00,,,0.00,32.00,VWS V14.01,2013-09-14 11:11:00,
2013-09-14 07:15:00,52.3,42.8,29.97,NE,50,0.0,7.0,70,0.00,,,0.00,33.00,VWS V14.01,2013-09-14 11:15:00,
2013-09-14 07:16:00,52.3,42.8,29.97,NE,50,2.0,4.0,70,0.00,,,0.00,35.00,VWS V14.01,2013-09-14 11:16:00,
2013-09-14 07:21:00,52.3,42.8,29.97,SE,140,0.0,6.0,70,0.00,,,0.00,42.00,VWS V14.01,2013-09-14 11:21:00,
2013-09-14 07:26:00,52.3,42.8,29.97,NE,37,0.0,6.0,70,0.00,,,0.00,60.00,VWS V14.01,2013-09-14 11:26:00,
2013-09-14 07:30:00,52.3,42.8,29.98,ENE,70,2.0,6.0,70,0.00,,,0.00,63.00,VWS V14.01,2013-09-14 11:30:00,
2013-09-14 07:31:00,52.3,42.8,29.98,ENE,68,0.0,4.0,70,0.00,,,0.00,67.00,VWS V14.01,2013-09-14 11:31:00,
2013-09-14 07:36:00,52.5,43.0,29.98,NE,53,10.0,10.0,70,0.00,,,0.00,186.00,VWS V14.01,2013-09-14 11:36:00,
2013-09-14 07:40:00,52.9,43.0,29.98,SW,223,0.0,10.0,69,0.00,,,0.00,144.00,VWS V14.01,2013-09-14 11:40:00,
2013-09-14 07:45:00,53.1,43.2,29.98,NE,46,0.0,0.0,69,0.00,,,0.00,158.00,VWS V14.01,2013-09-14 11:45:00,
2013-09-14 07:50:00,52.9,43.0,29.98,ENE,69,0.0,9.0,69,0.00,,,0.00,172.00,VWS V14.01,2013-09-14 11:50:00,
2013-09-14 07:55:00,53.1,43.2,29.98,NW,320,0.0,9.0,69,0.00,,,0.00,185.00,VWS V14.01,2013-09-14 11:55:00,
2013-09-14 08:00:00,53.2,43.3,29.98,North,355,5.0,7.0,69,0.00,,,0.00,197.00,VWS V14.01,2013-09-14 12:00:00,
2013-09-14 08:05:00,53.3,43.0,29.98,NE,54,0.0,10.0,68,0.00,,,0.00,211.00,VWS V14.01,2013-09-14 12:05:00,
2013-09-14 08:10:00,53.5,43.6,29.98,NE,54,0.0,10.0,69,0.00,,,0.00,223.00,VWS V14.01,2013-09-14 12:10:00,
2013-09-14 08:15:00,53.5,43.6,29.98,NE,54,0.0,0.0,69,0.00,,,0.00,239.00,VWS V14.01,2013-09-14 12:15:00,
2013-09-14 08:20:00,53.9,43.6,29.98,NW,317,6.0,6.0,68,0.00,,,0.00,253.00,VWS V14.01,2013-09-14 12:20:00,
2013-09-14 08:25:00,54.2,43.5,29.98,NNE,13,0.0,10.0,67,0.00,,,0.00,264.00,VWS V14.01,2013-09-14 12:25:00,
2013-09-14 08:30:00,54.4,43.7,29.98,NNE,29,9.0,10.0,67,0.00,,,0.00,281.00,VWS V14.01,2013-09-14 12:30:00,
2013-09-14 08:31:00,54.4,43.7,29.98,North,5,0.0,9.0,67,0.00,,,0.00,285.00,VWS V14.01,2013-09-14 12:31:00,
2013-09-14 08:36:00,54.4,43.7,29.98,NE,54,6.0,9.0,67,0.00,,,0.00,299.00,VWS V14.01,2013-09-14 12:36:00,
2013-09-14 08:41:00,54.7,43.6,29.98,NE,40,7.0,9.0,66,0.00,,,0.00,311.00,VWS V14.01,2013-09-14 12:41:00,
2013-09-14 08:45:00,55.0,43.5,29.99,NE,49,0.0,9.0,65,0.00,,,0.00,323.00,VWS V14.01,2013-09-14 12:45:00,
2013-09-14 08:46:00,55.0,43.9,29.99,NE,49,0.0,0.0,66,0.00,,,0.00,325.00,VWS V14.01,2013-09-14 12:46:00,
2013-09-14 08:51:00,55.1,43.6,29.99,NE,44,0.0,11.0,65,0.00,,,0.00,345.00,VWS V14.01,2013-09-14 12:51:00,
2013-09-14 08:56:00,55.6,44.0,29.99,NE,55,0.0,11.0,65,0.00,,,0.00,369.00,VWS V14.01,2013-09-14 12:56:00,
2013-09-14 09:00:00,55.6,43.6,29.99,West,270,0.0,11.0,64,0.00,,,0.00,392.00,VWS V14.01,2013-09-14 13:00:00,
2013-09-14 09:01:00,55.6,44.0,29.99,ENE,58,0.0,0.0,65,0.00,,,0.00,392.00,VWS V14.01,2013-09-14 13:01:00,
2013-09-14 09:06:00,55.7,44.1,29.99,North,11,0.0,12.0,65,0.00,,,0.00,410.00,VWS V14.01,2013-09-14 13:06:00,
2013-09-14 09:11:00,56.3,43.9,29.99,NE,51,7.0,12.0,63,0.00,,,0.00,441.00,VWS V14.01,2013-09-14 13:11:00,
2013-09-14 09:15:00,56.0,44.0,29.99,SW,229,6.0,12.0,64,0.00,,,0.00,452.00,VWS V14.01,2013-09-14 13:15:00,
2013-09-14 09:16:00,56.0,43.6,29.99,WNW,299,0.0,8.0,63,0.00,,,0.00,473.00,VWS V14.01,2013-09-14 13:16:00,
2013-09-14 09:21:00,56.2,43.8,29.99,ENE,78,0.0,8.0,63,0.00,,,0.00,504.00,VWS V14.01,2013-09-14 13:21:00,
2013-09-14 09:26:00,56.5,44.5,29.99,NE,54,0.0,9.0,64,0.00,,,0.00,209.00,VWS V14.01,2013-09-14 13:26:00,
2013-09-14 09:30:00,56.7,43.8,30.00,North,360,0.0,9.0,62,0.00,,,0.00,415.00,VWS V14.01,2013-09-14 13:30:00,
2013-09-14 09:31:00,56.7,43.8,30.00,SW,215,0.0,0.0,62,0.00,,,0.00,227.00,VWS V14.01,2013-09-14 13:31:00,
2013-09-14 09:36:00,57.2,45.2,30.00,NE,52,4.0,6.0,64,0.00,,,0.00,225.00,VWS V14.01,2013-09-14 13:36:00,
2013-09-14 09:41:00,57.3,44.0,30.00,NNE,16,0.0,11.0,61,0.00,,,0.00,287.00,VWS V14.01,2013-09-14 13:41:00,
2013-09-14 09:45:00,57.3,44.0,30.00,ENE,62,11.0,12.0,61,0.00,,,0.00,279.00,VWS V14.01,2013-09-14 13:45:00,
2013-09-14 09:46:00,57.2,43.5,30.00,East,101,4.0,11.0,60,0.00,,,0.00,279.00,VWS V14.01,2013-09-14 13:46:00,
2013-09-14 09:51:00,56.7,44.3,30.00,West,273,0.0,11.0,63,0.00,,,0.00,288.00,VWS V14.01,2013-09-14 13:51:00,
2013-09-14 09:55:00,57.5,45.0,30.00,North,360,0.0,11.0,63,0.00,,,0.00,851.00,VWS V14.01,2013-09-14 13:55:00,
2013-09-14 10:00:00,58.0,45.1,30.00,ENE,57,2.0,4.0,62,0.00,,,0.00,494.00,VWS V14.01,2013-09-14 14:00:00,
2013-09-14 10:05:00,57.8,44.0,30.00,NE,48,4.0,11.0,60,0.00,,,0.00,288.00,VWS V14.01,2013-09-14 14:05:00,
2013-09-14 10:10:00,57.3,44.0,30.00,North,350,15.0,18.0,61,0.00,,,0.00,225.00,VWS V14.01,2013-09-14 14:10:00,
2013-09-14 10:15:00,57.0,44.1,30.01,NNE,30,4.0,13.0,62,0.00,,,0.00,684.00,VWS V14.01,2013-09-14 14:15:00,
2013-09-14 10:20:00,57.6,45.1,30.01,NE,44,0.0,19.0,63,0.00,,,0.00,793.00,VWS V14.01,2013-09-14 14:20:00,
2013-09-14 10:25:00,58.3,44.5,30.01,NNE,25,0.0,19.0,60,0.00,,,0.00,842.00,VWS V14.01,2013-09-14 14:25:00,
2013-09-14 10:30:00,58.3,44.5,30.01,ENE,62,5.0,8.0,60,0.00,,,0.00,279.00,VWS V14.01,2013-09-14 14:30:00,
2013-09-14 10:35:00,58.0,44.6,30.01,WNW,290,0.0,8.0,61,0.00,,,0.00,318.00,VWS V14.01,2013-09-14 14:35:00,
2013-09-14 10:40:00,57.3,44.0,30.01,SW,232,5.0,13.0,61,0.00,,,0.00,355.00,VWS V14.01,2013-09-14 14:40:00,
2013-09-14 10:45:00,57.2,43.9,30.02,WSW,254,3.0,13.0,61,0.00,,,0.00,302.00,VWS V14.01,2013-09-14 14:45:00,
2013-09-14 10:50:00,57.3,44.0,30.02,West,261,6.0,13.0,61,0.00,,,0.00,292.00,VWS V14.01,2013-09-14 14:50:00,
2013-09-14 10:55:00,57.3,44.4,30.02,NNW,331,0.0,13.0,62,0.00,,,0.00,290.00,VWS V14.01,2013-09-14 14:55:00,
2013-09-14 11:00:00,57.3,44.4,30.02,WNW,282,5.0,8.0,62,0.00,,,0.00,306.00,VWS V14.01,2013-09-14 15:00:00,
2013-09-14 11:05:00,58.0,45.9,30.02,NE,42,0.0,10.0,64,0.00,,,0.00,302.00,VWS V14.01,2013-09-14 15:05:00,
2013-09-14 11:10:00,58.1,44.7,30.02,North,360,0.0,10.0,61,0.00,,,0.00,272.00,VWS V14.01,2013-09-14 15:10:00,
2013-09-14 11:15:00,57.6,44.3,30.02,NE,45,6.0,8.0,61,0.00,,,0.00,279.00,VWS V14.01,2013-09-14 15:15:00,
2013-09-14 11:20:00,57.5,44.6,30.02,NE,55,0.0,10.0,62,0.00,,,0.00,373.00,VWS V14.01,2013-09-14 15:20:00,
2013-09-14 11:25:00,57.3,44.0,30.02,SSW,206,9.0,10.0,61,0.00,,,0.00,353.00,VWS V14.01,2013-09-14 15:25:00,
2013-09-14 11:30:00,57.6,43.8,30.02,ENE,57,5.0,5.0,60,0.00,,,0.00,364.00,VWS V14.01,2013-09-14 15:30:00,
2013-09-14 11:35:00,58.1,44.7,30.02,ENE,57,0.0,9.0,61,0.00,,,0.00,336.00,VWS V14.01,2013-09-14 15:35:00,
2013-09-14 11:40:00,58.7,45.3,30.02,North,360,7.0,9.0,61,0.00,,,0.00,292.00,VWS V14.01,2013-09-14 15:40:00,
2013-09-14 11:45:00,58.4,45.5,30.02,North,5,2.0,5.0,62,0.00,,,0.00,278.00,VWS V14.01,2013-09-14 15:45:00,
2013-09-14 11:50:00,58.0,45.5,30.02,NNE,16,2.0,8.0,63,0.00,,,0.00,272.00,VWS V14.01,2013-09-14 15:50:00,
2013-09-14 11:55:00,57.8,45.3,30.02,North,349,9.0,11.0,63,0.00,,,0.00,271.00,VWS V14.01,2013-09-14 15:55:00,
2013-09-14 12:00:00,57.5,45.0,30.03,SW,232,0.0,0.0,63,0.00,,,0.00,288.00,VWS V14.01,2013-09-14 16:00:00,
2013-09-14 12:05:00,57.6,45.1,30.03,WSW,243,3.0,11.0,63,0.00,,,0.00,302.00,VWS V14.01,2013-09-14 16:05:00,
2013-09-14 12:10:00,57.8,45.3,30.03,North,355,0.0,11.0,63,0.00,,,0.00,394.00,VWS V14.01,2013-09-14 16:10:00,
2013-09-14 12:15:00,58.0,44.6,30.03,NE,54,5.0,8.0,61,0.00,,,0.00,529.00,VWS V14.01,2013-09-14 16:15:00,
2013-09-14 12:20:00,58.3,45.3,30.03,NE,50,9.0,11.0,62,0.00,,,0.00,647.00,VWS V14.01,2013-09-14 16:20:00,
2013-09-14 12:25:00,59.0,45.2,30.03,NE,53,1.0,11.0,60,0.00,,,0.00,633.00,VWS V14.01,2013-09-14 16:25:00,
2013-09-14 12:30:00,60.1,45.7,30.03,NNE,23,8.0,8.0,59,0.00,,,0.00,606.00,VWS V14.01,2013-09-14 16:30:00,
2013-09-14 12:35:00,59.8,44.5,30.03,NNE,17,0.0,10.0,57,0.00,,,0.00,552.00,VWS V14.01,2013-09-14 16:35:00,
2013-09-14 12:40:00,59.8,45.0,30.03,NE,45,7.0,10.0,58,0.00,,,0.00,499.00,VWS V14.01,2013-09-14 16:40:00,
2013-09-14 12:45:00,60.4,44.7,30.03,ENE,57,0.0,5.0,56,0.00,,,0.00,439.00,VWS V14.01,2013-09-14 16:45:00,
2013-09-14 12:50:00,59.9,45.5,30.03,WSW,257,0.0,12.0,59,0.00,,,0.00,599.00,VWS V14.01,2013-09-14 16:50:00,
2013-09-14 12:55:00,60.5,45.2,30.03,North,9,4.0,12.0,57,0.00,,,0.00,450.00,VWS V14.01,2013-09-14 16:55:00,
2013-09-14 13:00:00,59.5,45.6,30.03,SW,215,1.0,7.0,60,0.00,,,0.00,489.00,VWS V14.01,2013-09-14 17:00:00,
2013-09-14 13:05:00,59.0,46.0,30.03,West,263,8.0,10.0,62,0.00,,,0.00,388.00,VWS V14.01,2013-09-14 17:05:00,
2013-09-14 13:10:00,58.9,46.3,30.03,SSW,213,2.0,16.0,63,0.00,,,0.00,619.00,VWS V14.01,2013-09-14 17:10:00,
2013-09-14 13:15:00,60.1,46.2,30.03,WNW,303,2.0,2.0,60,0.00,,,0.00,445.00,VWS V14.01,2013-09-14 17:15:00,
2013-09-14 13:20:00,60.2,46.3,30.03,South,180,0.0,5.0,60,0.00,,,0.00,415.00,VWS V14.01,2013-09-14 17:20:00,
2013-09-14 13:25:00,59.6,45.7,30.03,WSW,254,6.0,9.0,60,0.00,,,0.00,462.00,VWS V14.01,2013-09-14 17:25:00,
2013-09-14 13:30:00,59.0,45.6,30.03,WSW,248,0.0,0.0,61,0.00,,,0.00,422.00,VWS V14.01,2013-09-14 17:30:00,
2013-09-14 13:35:00,58.9,45.1,30.03,ENE,57,0.0,11.0,60,0.00,,,0.00,380.00,VWS V14.01,2013-09-14 17:35:00,
2013-09-14 13:40:00,59.3,45.4,30.03,WSW,248,10.0,11.0,60,0.00,,,0.00,592.00,VWS V14.01,2013-09-14 17:40:00,
2013-09-14 13:45:00,59.2,44.9,30.03,NE,44,9.0,11.0,59,0.00,,,0.00,515.00,VWS V14.01,2013-09-14 17:45:00,
2013-09-14 13:50:00,59.3,44.5,30.03,SSW,202,5.0,11.0,58,0.00,,,0.00,322.00,VWS V14.01,2013-09-14 17:50:00,
2013-09-14 13:55:00,59.9,45.1,30.03,SW,225,0.0,11.0,58,0.00,,,0.00,339.00,VWS V14.01,2013-09-14 17:55:00,
2013-09-14 14:00:00,59.8,45.0,30.03,East,79,0.0,0.0,58,0.00,,,0.00,346.00,VWS V14.01,2013-09-14 18:00:00,
2013-09-14 14:05:00,59.5,44.7,30.03,NE,40,10.0,12.0,58,0.00,,,0.00,381.00,VWS V14.01,2013-09-14 18:05:00,
2013-09-14 14:10:00,59.9,46.0,30.03,NE,47,0.0,12.0,60,0.00,,,0.00,318.00,VWS V14.01,2013-09-14 18:10:00,
2013-09-14 14:15:00,59.9,46.0,30.03,SSW,203,2.0,2.0,60,0.00,,,0.00,332.00,VWS V14.01,2013-09-14 18:15:00,
2013-09-14 14:20:00,59.3,46.3,30.03,WSW,250,4.0,9.0,62,0.00,,,0.00,410.00,VWS V14.01,2013-09-14 18:20:00,
2013-09-14 14:25:00,59.0,46.0,30.03,West,273,9.0,14.0,62,0.00,,,0.00,369.00,VWS V14.01,2013-09-14 18:25:00,
2013-09-14 14:30:00,58.9,45.9,30.03,West,279,0.0,0.0,62,0.00,,,0.00,415.00,VWS V14.01,2013-09-14 18:30:00,
2013-09-14 14:35:00,59.3,46.3,30.03,West,267,1.0,8.0,62,0.00,,,0.00,378.00,VWS V14.01,2013-09-14 18:35:00,
2013-09-14 14:40:00,59.5,46.1,30.03,NE,38,2.0,12.0,61,0.00,,,0.00,381.00,VWS V14.01,2013-09-14 18:40:00,
2013-09-14 14:45:00,59.3,45.4,30.03,WSW,242,10.0,10.0,60,0.00,,,0.00,257.00,VWS V14.01,2013-09-14 18:45:00,
2013-09-14 14:50:00,59.6,45.3,30.03,NW,324,4.0,10.0,59,0.00,,,0.00,912.00,VWS V14.01,2013-09-14 18:50:00,
2013-09-14 14:55:00,60.1,45.3,30.03,West,271,6.0,10.0,58,0.00,,,0.00,374.00,VWS V14.01,2013-09-14 18:55:00,
2013-09-14 15:00:00,60.1,45.7,30.03,SSW,192,7.0,8.0,59,0.00,,,0.00,346.00,VWS V14.01,2013-09-14 19:00:00,
2013-09-14 15:05:00,59.9,45.5,30.03,WSW,252,11.0,11.0,59,0.00,,,0.00,986.00,VWS V14.01,2013-09-14 19:05:00,
2013-09-14 15:10:00,60.7,45.8,30.03,West,273,0.0,11.0,58,0.00,,,0.00,353.00,VWS V14.01,2013-09-14 19:10:00,
2013-09-14 15:15:00,60.9,45.6,30.04,West,262,4.0,5.0,57,0.00,,,0.00,230.00,VWS V14.01,2013-09-14 19:15:00,
2013-09-14 15:20:00,59.8,45.5,30.04,NNE,17,0.0,8.0,59,0.00,,,0.00,218.00,VWS V14.01,2013-09-14 19:20:00,
2013-09-14 15:25:00,59.9,46.0,30.04,ESE,113,0.0,8.0,60,0.00,,,0.00,200.00,VWS V14.01,2013-09-14 19:25:00,
2013-09-14 15:30:00,59.5,45.6,30.04,SE,131,0.0,8.0,60,0.00,,,0.00,188.00,VWS V14.01,2013-09-14 19:30:00,
2013-09-14 15:35:00,58.9,45.9,30.04,ENE,59,0.0,9.0,62,0.00,,,0.00,172.00,VWS V14.01,2013-09-14 19:35:00,
2013-09-14 15:40:00,58.9,45.9,30.04,North,351,0.0,10.0,62,0.00,,,0.00,174.00,VWS V14.01,2013-09-14 19:40:00,
2013-09-14 15:45:00,58.7,46.2,30.04,WSW,256,4.0,10.0,63,0.00,,,0.00,181.00,VWS V14.01,2013-09-14 19:45:00,
2013-09-14 15:50:00,58.3,45.8,30.04,West,267,8.0,13.0,63,0.00,,,0.00,188.00,VWS V14.01,2013-09-14 19:50:00,
2013-09-14 15:55:00,58.4,45.9,30.04,West,277,0.0,13.0,63,0.00,,,0.00,171.00,VWS V14.01,2013-09-14 19:55:00,
2013-09-14 16:00:00,58.4,46.3,30.04,WNW,294,0.0,13.0,64,0.00,,,0.00,171.00,VWS V14.01,2013-09-14 20:00:00,
2013-09-14 16:05:00,58.1,45.6,30.04,WSW,254,8.0,9.0,63,0.00,,,0.00,171.00,VWS V14.01,2013-09-14 20:05:00,
2013-09-14 16:10:00,58.1,45.6,30.04,WNW,289,0.0,9.0,63,0.00,,,0.00,197.00,VWS V14.01,2013-09-14 20:10:00,
2013-09-14 16:15:00,58.4,45.9,30.04,WNW,285,0.0,9.0,63,0.00,,,0.00,197.00,VWS V14.01,2013-09-14 20:15:00,
2013-09-14 16:20:00,58.9,46.3,30.04,West,276,4.0,8.0,63,0.00,,,0.00,171.00,VWS V14.01,2013-09-14 20:20:00,
2013-09-14 16:25:00,58.6,45.6,30.04,WSW,251,4.0,8.0,62,0.00,,,0.00,160.00,VWS V14.01,2013-09-14 20:25:00,
2013-09-14 16:30:00,58.6,45.6,30.05,SE,129,0.0,8.0,62,0.00,,,0.00,165.00,VWS V14.01,2013-09-14 20:30:00,
2013-09-14 16:35:00,58.9,45.9,30.05,ENE,78,0.0,5.0,62,0.00,,,0.00,169.00,VWS V14.01,2013-09-14 20:35:00,
2013-09-14 16:40:00,58.7,45.3,30.05,West,280,0.0,7.0,61,0.00,,,0.00,156.00,VWS V14.01,2013-09-14 20:40:00,
2013-09-14 16:45:00,58.4,45.0,30.06,West,259,0.0,10.0,61,0.00,,,0.00,146.00,VWS V14.01,2013-09-14 20:45:00,
2013-09-14 16:50:00,58.1,45.2,30.06,WSW,246,0.0,8.0,62,0.00,,,0.00,132.00,VWS V14.01,2013-09-14 20:50:00,
2013-09-14 16:55:00,58.0,45.1,30.06,NW,313,4.0,9.0,62,0.00,,,0.00,139.00,VWS V14.01,2013-09-14 20:55:00,
2013-09-14 17:00:00,58.0,45.5,30.06,West,273,0.0,9.0,63,0.00,,,0.00,130.00,VWS V14.01,2013-09-14 21:00:00,
2013-09-14 17:05:00,57.8,44.9,30.06,West,276,8.0,11.0,62,0.00,,,0.00,114.00,VWS V14.01,2013-09-14 21:05:00,
2013-09-14 17:10:00,57.5,44.6,30.06,SW,234,0.0,11.0,62,0.00,,,0.00,114.00,VWS V14.01,2013-09-14 21:10:00,
2013-09-14 17:15:00,57.5,45.0,30.07,WSW,253,0.0,11.0,63,0.00,,,0.00,104.00,VWS V14.01,2013-09-14 21:15:00,
2013-09-14 17:20:00,57.3,44.4,30.07,West,271,6.0,8.0,62,0.00,,,0.00,98.00,VWS V14.01,2013-09-14 21:20:00,
2013-09-14 17:25:00,57.3,44.4,30.07,SSW,212,2.0,8.0,62,0.00,,,0.00,105.00,VWS V14.01,2013-09-14 21:25:00,
2013-09-14 17:30:00,57.3,44.8,30.08,SW,215,3.0,8.0,63,0.00,,,0.00,88.00,VWS V14.01,2013-09-14 21:30:00,
2013-09-14 17:35:00,57.3,44.4,30.08,North,9,0.0,2.0,62,0.00,,,0.00,90.00,VWS V14.01,2013-09-14 21:35:00,
2013-09-14 17:39:00,57.2,44.3,30.08,North,355,0.0,7.0,62,0.00,,,0.00,93.00,VWS V14.01,2013-09-14 21:39:00,
2013-09-14 17:44:00,57.2,44.7,30.08,WNW,282,5.0,8.0,63,0.00,,,0.00,105.00,VWS V14.01,2013-09-14 21:44:00,
2013-09-14 17:45:00,57.2,44.7,30.08,WNW,282,7.0,8.0,63,0.00,,,0.00,109.00,VWS V14.01,2013-09-14 21:45:00,
2013-09-14 17:49:00,57.0,44.1,30.08,SW,236,5.0,10.0,62,0.00,,,0.00,93.00,VWS V14.01,2013-09-14 21:49:00,
2013-09-14 17:54:00,56.7,43.8,30.08,WSW,257,4.0,15.0,62,0.00,,,0.00,72.00,VWS V14.01,2013-09-14 21:54:00,
2013-09-14 17:59:00,56.9,44.0,30.08,West,268,6.0,15.0,62,0.00,,,0.00,227.00,VWS V14.01,2013-09-14 21:59:00,
2013-09-14 18:00:00,56.9,44.0,30.08,SW,235,7.0,15.0,62,0.00,,,0.00,227.00,VWS V14.01,2013-09-14 22:00:00,
2013-09-14 18:04:00,57.2,43.9,30.08,WSW,242,6.0,9.0,61,0.00,,,0.00,241.00,VWS V14.01,2013-09-14 22:04:00,
2013-09-14 18:09:00,57.3,43.5,30.08,WSW,250,0.0,9.0,60,0.00,,,0.00,234.00,VWS V14.01,2013-09-14 22:09:00,
2013-09-14 18:14:00,57.6,43.8,30.08,West,271,2.0,9.0,60,0.00,,,0.00,72.00,VWS V14.01,2013-09-14 22:14:00,
2013-09-14 18:15:00,57.6,43.8,30.08,West,262,4.0,9.0,60,0.00,,,0.00,70.00,VWS V14.01,2013-09-14 22:15:00,
2013-09-14 18:19:00,57.5,44.2,30.08,West,269,0.0,7.0,61,0.00,,,0.00,165.00,VWS V14.01,2013-09-14 22:19:00,
2013-09-14 18:24:00,57.0,44.1,30.08,WSW,243,1.0,9.0,62,0.00,,,0.00,53.00,VWS V14.01,2013-09-14 22:24:00,
2013-09-14 18:29:00,56.6,44.2,30.09,West,275,0.0,9.0,63,0.00,,,0.00,30.00,VWS V14.01,2013-09-14 22:29:00,
2013-09-14 18:30:00,56.6,44.2,30.09,West,270,0.0,9.0,63,0.00,,,0.00,30.00,VWS V14.01,2013-09-14 22:30:00,
2013-09-14 18:34:00,56.3,43.9,30.09,WNW,295,4.0,8.0,63,0.00,,,0.00,19.00,VWS V14.01,2013-09-14 22:34:00,
2013-09-14 18:39:00,56.0,44.0,30.09,WNW,286,0.0,8.0,64,0.00,,,0.00,16.00,VWS V14.01,2013-09-14 22:39:00,
2013-09-14 18:44:00,55.7,44.1,30.09,West,279,0.0,8.0,65,0.00,,,0.00,12.00,VWS V14.01,2013-09-14 22:44:00,
2013-09-14 18:45:00,55.6,44.4,30.09,West,279,1.0,8.0,66,0.00,,,0.00,12.00,VWS V14.01,2013-09-14 22:45:00,
2013-09-14 18:49:00,55.3,44.2,30.09,West,279,0.0,4.0,66,0.00,,,0.00,19.00,VWS V14.01,2013-09-14 22:49:00,
2013-09-14 18:54:00,55.0,44.7,30.09,West,279,0.0,4.0,68,0.00,,,0.00,11.00,VWS V14.01,2013-09-14 22:54:00,
2013-09-14 18:59:00,54.7,44.7,30.09,West,279,0.0,4.0,69,0.00,,,0.00,9.00,VWS V14.01,2013-09-14 22:59:00,
2013-09-14 19:00:00,54.5,44.5,30.09,West,279,0.0,4.0,69,0.00,,,0.00,9.00,VWS V14.01,2013-09-14 23:00:00,
2013-09-14 19:04:00,54.2,44.6,30.09,West,267,3.0,5.0,70,0.00,,,0.00,7.00,VWS V14.01,2013-09-14 23:04:00,
2013-09-14 19:09:00,53.9,44.7,30.09,West,277,0.0,5.0,71,0.00,,,0.00,5.00,VWS V14.01,2013-09-14 23:09:00,
2013-09-14 19:14:00,53.8,44.6,30.09,West,277,0.0,5.0,71,0.00,,,0.00,0.00,VWS V14.01,2013-09-14 23:14:00,
2013-09-14 19:15:00,53.6,44.4,30.09,West,277,0.0,5.0,71,0.00,,,0.00,0.00,VWS V14.01,2013-09-14 23:15:00,
2013-09-14 19:19:00,53.5,44.7,30.09,West,277,0.0,0.0,72,0.00,,,0.00,0.00,VWS V14.01,2013-09-14 23:19:00,
2013-09-14 19:24:00,53.3,44.9,30.09,West,277,0.0,0.0,73,0.00,,,0.00,0.00,VWS V14.01,2013-09-14 23:24:00,
2013-09-14 19:29:00,53.2,44.8,30.10,West,277,0.0,0.0,73,0.00,,,0.00,0.00,VWS V14.01,2013-09-14 23:29:00,
2013-09-14 19:30:00,53.2,44.8,30.10,West,277,0.0,0.0,73,0.00,,,0.00,0.00,VWS V14.01,2013-09-14 23:30:00,
2013-09-14 19:34:00,52.9,44.5,30.10,West,277,0.0,0.0,73,0.00,,,0.00,0.00,VWS V14.01,2013-09-14 23:34:00,
2013-09-14 19:39:00,52.8,45.5,30.10,West,277,0.0,0.0,76,0.00,,,0.00,0.00,VWS V14.01,2013-09-14 23:39:00,
2013-09-14 19:44:00,52.5,45.5,30.10,West,277,0.0,0.0,77,0.00,,,0.00,0.00,VWS V14.01,2013-09-14 23:44:00,
2013-09-14 19:45:00,52.3,45.3,30.10,West,277,0.0,0.0,77,0.00,,,0.00,0.00,VWS V14.01,2013-09-14 23:45:00,
2013-09-14 19:49:00,52.0,45.4,30.10,West,277,0.0,0.0,78,0.00,,,0.00,0.00,VWS V14.01,2013-09-14 23:49:00,
2013-09-14 19:54:00,51.7,45.1,30.10,West,277,0.0,0.0,78,0.00,,,0.00,0.00,VWS V14.01,2013-09-14 23:54:00,
2013-09-14 19:59:00,51.3,45.0,30.11,West,277,0.0,0.0,79,0.00,,,0.00,0.00,VWS V14.01,2013-09-14 23:59:00,
2013-09-14 20:00:00,51.3,45.3,30.11,West,277,0.0,0.0,80,0.00,,,0.00,0.00,VWS V14.01,2013-09-15 00:00:00,
2013-09-14 20:04:00,51.0,45.1,30.11,West,277,0.0,0.0,80,0.00,,,0.00,0.00,VWS V14.01,2013-09-15 00:04:00,
2013-09-14 20:09:00,50.5,44.9,30.11,West,277,0.0,0.0,81,0.00,,,0.00,0.00,VWS V14.01,2013-09-15 00:09:00,
2013-09-14 20:14:00,50.4,45.1,30.11,West,277,0.0,0.0,82,0.00,,,0.00,0.00,VWS V14.01,2013-09-15 00:14:00,
2013-09-14 20:15:00,50.4,45.1,30.11,West,277,0.0,0.0,82,0.00,,,0.00,0.00,VWS V14.01,2013-09-15 00:15:00,
2013-09-14 20:19:00,50.2,44.9,30.11,West,277,0.0,0.0,82,0.00,,,0.00,0.00,VWS V14.01,2013-09-15 00:19:00,
2013-09-14 20:24:00,50.1,44.8,30.11,West,277,0.0,0.0,82,0.00,,,0.00,0.00,VWS V14.01,2013-09-15 00:24:00,
2013-09-14 20:29:00,49.9,44.6,30.12,West,277,0.0,0.0,82,0.00,,,0.00,0.00,VWS V14.01,2013-09-15 00:29:00,
2013-09-14 20:30:00,49.9,44.6,30.12,West,277,0.0,0.0,82,0.00,,,0.00,0.00,VWS V14.01,2013-09-15 00:30:00,
2013-09-14 20:34:00,49.9,45.3,30.12,West,277,0.0,0.0,84,0.00,,,0.00,0.00,VWS V14.01,2013-09-15 00:34:00,
2013-09-14 20:39:00,49.8,45.2,30.12,West,277,0.0,0.0,84,0.00,,,0.00,0.00,VWS V14.01,2013-09-15 00:39:00,
2013-09-14 20:44:00,49.6,45.0,30.12,West,277,0.0,0.0,84,0.00,,,0.00,0.00,VWS V14.01,2013-09-15 00:44:00,
2013-09-14 20:45:00,49.6,45.0,30.12,West,277,0.0,0.0,84,0.00,,,0.00,0.00,VWS V14.01,2013-09-15 00:45:00,
2013-09-14 20:49:00,49.5,44.9,30.12,West,277,0.0,0.0,84,0.00,,,0.00,0.00,VWS V14.01,2013-09-15 00:49:00,
2013-09-14 20:54:00,49.4,45.1,30.12,West,277,0.0,0.0,85,0.00,,,0.00,0.00,VWS V14.01,2013-09-15 00:54:00,
2013-09-14 20:59:00,49.1,44.8,30.12,West,277,0.0,0.0,85,0.00,,,0.00,0.00,VWS V14.01,2013-09-15 00:59:00,
2013-09-14 21:00:00,49.1,44.8,30.12,West,277,0.0,0.0,85,0.00,,,0.00,0.00,VWS V14.01,2013-09-15 01:00:00,
2013-09-14 21:04:00,48.9,44.6,30.12,West,277,0.0,0.0,85,0.00,,,0.00,0.00,VWS V14.01,2013-09-15 01:04:00,
2013-09-14 21:09:00,48.6,44.6,30.12,West,277,0.0,0.0,86,0.00,,,0.00,0.00,VWS V14.01,2013-09-15 01:09:00,
2013-09-14 21:14:00,48.5,44.5,30.13,West,277,0.0,0.0,86,0.00,,,0.00,0.00,VWS V14.01,2013-09-15 01:14:00,
2013-09-14 21:15:00,48.5,44.8,30.13,West,277,0.0,0.0,87,0.00,,,0.00,0.00,VWS V14.01,2013-09-15 01:15:00,
2013-09-14 21:19:00,48.3,44.6,30.13,West,277,0.0,0.0,87,0.00,,,0.00,0.00,VWS V14.01,2013-09-15 01:19:00,
2013-09-14 21:24:00,48.2,44.5,30.13,West,277,0.0,0.0,87,0.00,,,0.00,0.00,VWS V14.01,2013-09-15 01:24:00,
2013-09-14 21:29:00,48.0,44.3,30.13,West,277,0.0,0.0,87,0.00,,,0.00,0.00,VWS V14.01,2013-09-15 01:29:00,
2013-09-14 21:30:00,47.9,44.2,30.13,West,277,0.0,0.0,87,0.00,,,0.00,0.00,VWS V14.01,2013-09-15 01:30:00,
2013-09-14 21:34:00,47.9,44.2,30.13,West,277,0.0,0.0,87,0.00,,,0.00,0.00,VWS V14.01,2013-09-15 01:34:00,
2013-09-14 21:39:00,47.7,44.0,30.13,West,277,0.0,0.0,87,0.00,,,0.00,0.00,VWS V14.01,2013-09-15 01:39:00,
2013-09-14 21:44:00,47.6,44.2,30.13,West,277,0.0,0.0,88,0.00,,,0.00,0.00,VWS V14.01,2013-09-15 01:44:00,
2013-09-14 21:45:00,47.6,44.2,30.13,West,277,0.0,0.0,88,0.00,,,0.00,0.00,VWS V14.01,2013-09-15 01:45:00,
2013-09-14 21:49:00,47.6,44.2,30.13,West,277,0.0,0.0,88,0.00,,,0.00,0.00,VWS V14.01,2013-09-15 01:49:00,
2013-09-14 21:54:00,47.4,44.0,30.13,West,277,0.0,0.0,88,0.00,,,0.00,0.00,VWS V14.01,2013-09-15 01:54:00,
2013-09-14 21:59:00,47.3,43.9,30.13,West,277,0.0,0.0,88,0.00,,,0.00,0.00,VWS V14.01,2013-09-15 01:59:00,
2013-09-14 22:00:00,47.3,43.9,30.13,West,277,0.0,0.0,88,0.00,,,0.00,0.00,VWS V14.01,2013-09-15 02:00:00,
2013-09-14 22:04:00,47.1,44.0,30.13,West,277,0.0,0.0,89,0.00,,,0.00,0.00,VWS V14.01,2013-09-15 02:04:00,
2013-09-14 22:09:00,46.8,43.7,30.13,West,277,0.0,0.0,89,0.00,,,0.00,0.00,VWS V14.01,2013-09-15 02:09:00,
2013-09-14 22:14:00,46.7,43.6,30.13,West,277,0.0,0.0,89,0.00,,,0.00,0.00,VWS V14.01,2013-09-15 02:14:00,
2013-09-14 22:15:00,46.7,43.6,30.13,West,277,0.0,0.0,89,0.00,,,0.00,0.00,VWS V14.01,2013-09-15 02:15:00,
2013-09-14 22:19:00,46.5,43.4,30.13,West,277,0.0,0.0,89,0.00,,,0.00,0.00,VWS V14.01,2013-09-15 02:19:00,
2013-09-14 22:24:00,46.4,43.6,30.13,West,277,0.0,0.0,90,0.00,,,0.00,0.00,VWS V14.01,2013-09-15 02:24:00,
2013-09-14 22:29:00,46.2,43.4,30.14,West,277,0.0,0.0,90,0.00,,,0.00,0.00,VWS V14.01,2013-09-15 02:29:00,
2013-09-14 22:30:00,46.2,43.4,30.14,West,277,0.0,0.0,90,0.00,,,0.00,0.00,VWS V14.01,2013-09-15 02:30:00,
2013-09-14 22:34:00,46.2,43.4,30.14,West,277,0.0,0.0,90,0.00,,,0.00,0.00,VWS V14.01,2013-09-15 02:34:00,
2013-09-14 22:39:00,46.1,43.3,30.14,West,277,0.0,0.0,90,0.00,,,0.00,0.00,VWS V14.01,2013-09-15 02:39:00,
2013-09-14 22:44:00,46.0,43.2,30.14,West,277,0.0,0.0,90,0.00,,,0.00,0.00,VWS V14.01,2013-09-15 02:44:00,
2013-09-14 22:45:00,46.0,43.2,30.14,West,277,0.0,0.0,90,0.00,,,0.00,0.00,VWS V14.01,2013-09-15 02:45:00,
2013-09-14 22:49:00,45.8,43.3,30.14,West,277,0.0,0.0,91,0.00,,,0.00,0.00,VWS V14.01,2013-09-15 02:49:00,
2013-09-14 22:54:00,45.7,43.2,30.14,West,277,0.0,0.0,91,0.00,,,0.00,0.00,VWS V14.01,2013-09-15 02:54:00,
2013-09-14 22:59:00,45.5,43.0,30.14,West,277,0.0,0.0,91,0.00,,,0.00,0.00,VWS V14.01,2013-09-15 02:59:00,
2013-09-14 23:00:00,45.5,43.0,30.14,West,277,0.0,0.0,91,0.00,,,0.00,0.00,VWS V14.01,2013-09-15 03:00:00,
2013-09-14 23:04:00,45.5,43.0,30.14,West,277,0.0,0.0,91,0.00,,,0.00,0.00,VWS V14.01,2013-09-15 03:04:00,
2013-09-14 23:09:00,45.4,42.9,30.14,West,277,0.0,0.0,91,0.00,,,0.00,0.00,VWS V14.01,2013-09-15 03:09:00,
2013-09-14 23:14:00,45.4,42.9,30.14,West,277,0.0,0.0,91,0.00,,,0.00,0.00,VWS V14.01,2013-09-15 03:14:00,
2013-09-14 23:15:00,45.2,42.7,30.14,West,277,0.0,0.0,91,0.00,,,0.00,0.00,VWS V14.01,2013-09-15 03:15:00,
2013-09-14 23:19:00,45.2,43.0,30.14,West,277,0.0,0.0,92,0.00,,,0.00,0.00,VWS V14.01,2013-09-15 03:19:00,
2013-09-14 23:24:00,45.1,42.9,30.14,West,277,0.0,0.0,92,0.00,,,0.00,0.00,VWS V14.01,2013-09-15 03:24:00,
2013-09-14 23:29:00,45.1,42.9,30.14,West,277,0.0,0.0,92,0.00,,,0.00,0.00,VWS V14.01,2013-09-15 03:29:00,
2013-09-14 23:30:00,44.9,42.7,30.15,West,277,0.0,0.0,92,0.00,,,0.00,0.00,VWS V14.01,2013-09-15 03:30:00,
2013-09-14 23:34:00,44.9,42.7,30.15,West,277,0.0,0.0,92,0.00,,,0.00,0.00,VWS V14.01,2013-09-15 03:34:00,
2013-09-14 23:39:00,44.8,42.6,30.15,West,277,0.0,0.0,92,0.00,,,0.00,0.00,VWS V14.01,2013-09-15 03:39:00,
2013-09-14 23:44:00,44.8,42.6,30.15,West,277,0.0,0.0,92,0.00,,,0.00,0.00,VWS V14.01,2013-09-15 03:44:00,
2013-09-14 23:45:00,44.6,42.4,30.15,West,277,0.0,0.0,92,0.00,,,0.00,0.00,VWS V14.01,2013-09-15 03:45:00,
2013-09-14 23:49:00,44.6,42.4,30.15,West,277,0.0,0.0,92,0.00,,,0.00,0.00,VWS V14.01,2013-09-15 03:49:00,
2013-09-14 23:54:00,44.5,42.3,30.15,West,277,0.0,0.0,92,0.00,,,0.00,0.00,VWS V14.01,2013-09-15 03:54:00,
2013-09-14 23:59:00,44.5,42.3,30.15,West,277,0.0,0.0,92,0.00,,,0.00,0.00,VWS V14.01,2013-09-15 03:59:00,